Temperature
18 18 18 18 18 18 18 18 18 18 18 18 18 18 18 18 18 18 18 18 18 18 18 18 18 18 18 18 18 18 17 17 17 17 17 17 17 17 16 16 16 16 16
18 18 18 18 18 18 18 18 18 18 18 18 18 18 18 18 18 18 18 18 18 18 18 18 18 18 18 18 18 18 18 17 17 17 17 17 17 17 17 16 16 16 16
18 18 18 18 18 18 18 18 18 18 18 18 18 18 18 18 18 18 18 18 18 18 18 18 18 18 18 18 18 17 17 17 17 17 17 17 17 17 17 17 16 16 16
18 18 18 18 18 18 18 18 18 18 18 18 18 18 18 18 18 18 18 18 18 18 18 18 18 18 18 18 18 18 17 17 17 17 17 17 17 17 17 17 16 16 16
18 18 19 18 18 18 18 18 18 18 18 18 18 18 18 18 18 18 18 18 18 18 18 18 18 18 18 18 18 18 17 17 17 17 17 17 17 17 17 17 16 16 16
19 19 19 18 18 18 18 18 18 18 18 18 18 18 18 18 18 18 18 18 18 18 18 18 18 18 18 18 18 17 17 17 17 17 17 17 17 17 17 17 16 16 16
19 19 19 18 18 18 18 18 18 18 18 18 18 18 19 19 19 19 19 18 18 18 18 18 18 18 18 18 18 18 17 17 17 17 17 17 17 17 17 16 16 16 16
19 19 19 19 19 18 18 18 18 18 18 18 18 18 18 19 19 19 19 18 18 18 18 18 18 18 18 18 18 18 17 17 17 17 17 17 17 17 17 16 16 16 16
19 19 19 19 19 19 18 18 18 18 18 18 18 18 18 18 18 19 19 19 18 18 18 18 18 18 18 18 18 18 17 17 17 17 17 17 17 17 17 17 17 16 16
19 19 19 19 19 19 19 18 18 18 18 18 18 18 18 18 18 18 18 18 18 18 18 18 18 18 18 18 18 18 17 17 17 17 17 17 17 17 17 17 16 16 16
19 19 19 19 19 19 19 18 18 18 18 18 18 18 18 18 18 18 18 18 18 18 18 18 18 18 18 18 18 17 17 17 17 17 17 17 17 17 16 16 16 16 16
19 19 19 19 19 19 19 18 18 18 18 18 18 18 18 18 18 18 18 18 18 18 18 18 18 18 18 18 18 17 17 17 17 17 17 17 17 16 16 16 16 16 16
19 19 19 19 19 18 18 18 18 18 18 18 18 18 18 18 18 18 18 18 17 18 18 18 18 17 17 17 17 17 17 17 17 17 16 16 16 16 16 16 16 16 16
20 19 19 19 19 18 18 18 18 18 18 18 18 18 18 18 18 17 17 17 17 17 17 17 17 17 17 17 17 17 17 17 17 16 16 16 16 16 16 16 16 16 16
20 19 19 19 19 18 18 18 18 18 18 18 18 18 18 18 17 17 17 17 17 17 17 17 17 17 17 17 17 17 17 16 16 16 16 16 16 16 16 16 16 15 15
19 19 19 19 18 18 18 18 18 18 18 18 18 17 17 17 17 17 17 17 17 17 17 17 17 17 17 17 16 16 16 16 16 16 16 16 16 16 15 15 15 15 15
19 19 19 19 18 18 18 18 18 18 18 18 17 17 18 18 17 17 17 17 17 17 17 17 17 17 17 17 16 16 16 16 16 16 16 15 15 15 15 15 15 15 15
19 19 18 18 18 18 18 18 18 18 18 17 17 17 17 17 17 17 17 17 17 17 17 17 17 17 17 17 16 16 16 15 15 15 15 15 15 15 15 15 15 15 15
19 19 18 18 18 18 18 18 17 17 17 17 17 17 17 17 17 17 17 17 17 17 17 16 17 17 17 16 16 16 15 15 15 15 15 15 15 15 15 15 15 14 14
19 18 18 18 18 18 18 17 17 17 17 17 17 17 17 17 17 17 17 17 17 17 16 16 16 16 16 16 16 15 15 15 15 15 15 14 14 14 14 14 14 14 14
18 18 18 18 17 17 17 17 17 17 17 17 17 17 17 17 17 17 17 17 17 16 16 16 16 16 16 16 16 16 15 15 15 15 15 14 14 14 14 14 14 14 14
18 18 17 17 17 17 17 17 17 17 17 17 17 17 17 17 17 17 16 16 16 16 16 16 16 16 16 16 16 15 15 15 15 15 14 14 14 14 14 14 14 14 14
17 17 17 17 17 17 17 17 17 17 17 17 17 17 17 17 16 16 16 16 16 16 16 16 16 16 16 16 15 15 15 15 15 15 14 14 14 14 14 14 14 13 13
17 17 17 17 17 17 17 17 16 16 16 16 16 16 16 16 16 16 16 16 16 16 16 16 16 16 15 15 15 15 15 15 14 14 14 14 14 14 14 14 13 13 13
17 17 17 16 17 17 16 16 16 16 16 16 16 16 16 16 16 16 16 16 16 16 15 15 15 15 15 15 15 14 14 14 14 14 14 14 14 14 13 14 13 13 13
17 17 16 16 16 16 16 16 16 16 16 16 16 16 16 16 16 16 15 15 15 15 15 15 15 15 15 15 14 14 14 14 14 14 14 13 13 13 13 13 13 13 13
Wind_Speed
4 4 4 6 6 6 6 5 5 5 5 6 6 6 5 7 7 9 10 14 16 16 17 17 17 17 16 16 15 15 15 14 14 14 13 13 13 13 12 12 12 12 12
5 5 4 4 5 7 7 6 5 4 4 4 4 4 6 7 7 9 10 13 16 17 17 17 17 17 17 16 16 16 16 16 15 15 15 14 14 14 13 13 13 13 13
7 6 4 4 4 6 6 4 4 3 3 3 3 4 4 5 7 8 10 11 13 16 17 18 18 18 18 17 17 17 17 17 17 16 16 16 15 15 14 14 14 14 14
9 6 4 4 5 5 4 3 2 2 2 2 3 3 3 4 6 8 8 10 11 12 15 18 19 19 19 18 18 18 18 18 18 18 18 17 17 17 16 16 15 15 15
10 6 4 4 5 3 2 3 2 2 2 3 3 4 3 4 4 6 6 9 11 12 13 16 19 20 19 19 18 18 17 18 18 18 18 18 18 18 18 18 17 17 17
9 7 4 4 4 3 2 2 2 2 2 3 3 3 3 4 3 4 5 6 8 11 12 12 13 15 18 18 18 18 17 17 17 17 17 18 19 19 19 19 18 18 18
8 6 4 3 3 3 4 4 2 2 2 1 0 2 3 3 3 3 3 3 5 8 9 10 10 10 11 14 15 16 16 16 17 17 17 17 17 18 18 17 17 18 18
7 6 4 4 4 3 3 3 3 2 1 1 2 0 2 4 3 3 2 2 3 3 4 8 8 8 9 8 9 12 13 14 15 14 14 14 14 14 15 16 16 16 16
7 6 5 4 4 4 3 4 4 4 2 2 2 3 2 3 3 3 2 2 2 1 2 3 5 7 8 7 7 9 11 12 12 12 11 11 11 11 11 13 13 13 14
6 6 5 5 5 4 4 4 4 3 3 2 2 2 3 3 2 2 3 3 2 2 2 2 2 4 6 7 7 9 10 11 11 10 10 10 10 9 9 9 9 9 10
5 6 6 5 5 4 4 4 3 4 3 3 2 2 2 1 2 2 3 3 2 2 2 2 2 2 5 6 6 7 8 8 9 8 8 8 7 7 7 7 7 8 8
4 5 5 5 5 4 5 5 4 5 4 4 3 3 2 2 3 3 3 3 2 3 2 1 2 2 4 6 6 7 7 7 8 8 7 6 6 5 5 5 5 6 6
4 6 6 5 5 5 5 4 4 4 5 4 4 4 3 4 3 3 3 3 2 2 2 1 2 2 3 4 5 7 7 7 7 7 7 7 6 5 4 4 3 3 3
6 6 6 6 6 6 6 4 4 4 4 4 5 4 3 4 3 3 3 3 2 2 2 2 1 2 3 4 5 7 6 7 7 8 8 7 7 6 5 4 3 3 2
6 6 6 6 6 6 6 5 4 5 4 4 4 4 4 3 3 3 3 4 3 2 3 3 2 1 3 4 5 6 6 7 8 8 8 7 7 6 6 5 4 4 3
5 5 6 6 6 6 5 5 4 4 4 4 3 3 3 3 3 2 3 3 3 4 4 3 3 2 2 3 5 5 6 7 8 8 7 7 8 7 6 5 5 4 4
6 6 6 6 6 6 5 5 5 5 4 4 4 3 4 3 3 2 2 3 3 3 4 3 2 1 2 3 3 4 5 6 6 8 8 8 8 8 7 6 5 5 4
6 6 6 6 6 6 6 6 6 5 5 5 5 4 4 3 4 3 3 3 3 3 3 4 2 2 3 4 4 4 4 5 6 8 9 9 9 8 8 7 7 6 5
5 6 6 7 7 6 6 6 6 6 5 5 5 5 5 4 5 4 4 4 3 3 3 3 3 2 2 2 2 2 3 3 5 7 8 9 9 9 9 9 8 7 6
6 6 6 6 7 7 7 6 6 5 5 5 5 6 6 6 6 5 5 4 3 3 2 2 2 2 2 2 2 2 2 2 3 4 6 7 9 9 10 10 9 9 8
7 6 6 6 6 6 6 6 6 6 6 5 5 5 6 7 8 6 5 4 4 3 3 3 3 2 2 2 3 3 4 3 3 3 2 3 4 5 7 9 10 10 10
6 6 6 6 6 6 7 9 8 6 5 6 5 5 6 6 8 8 8 8 7 6 6 5 4 4 5 4 3 3 3 2 3 3 4 3 3 4 6 8 11 12 12
5 5 6 6 6 7 8 9 9 7 6 6 6 5 5 5 5 4 5 6 7 9 9 7 7 7 6 6 5 4 4 5 5 4 4 4 3 5 6 9 13 14 13
4 4 5 6 6 6 7 7 7 6 5 6 6 6 6 5 4 4 4 3 4 5 7 7 7 8 7 6 7 6 6 4 2 2 4 4 4 4 4 7 12 14 15
4 4 4 5 6 6 7 6 5 4 4 4 4 4 4 4 5 5 4 4 4 4 5 7 8 7 8 7 6 4 3 3 3 3 3 3 3 2 2 4 7 13 14
4 4 4 4 5 6 6 6 6 3 3 3 3 2 3 4 4 5 5 5 5 5 3 3 3 4 4 5 7 7 7 6 3 3 4 4 3 2 2 2 3 6 9
Wind_Direction
187 191 194 199 203 204 205 213 222 225 234 240 234 215 210 208 206 208 208 208 208 208 207 207 208 208 208 209 208 208 209 211 212 215 217 218 217 217 219 219 219 221 222
183 184 187 194 203 203 204 205 211 217 228 233 242 224 209 208 209 209 211 214 215 213 213 213 214 215 215 214 214 213 215 217 217 218 218 220 222 223 224 224 224 226 226
183 179 185 197 204 202 200 203 215 210 224 230 245 241 221 215 210 209 212 214 219 220 219 217 217 219 219 219 219 219 220 221 220 221 221 222 224 225 226 227 229 230 230
189 180 188 204 202 192 187 191 201 211 241 241 246 253 240 226 218 212 210 215 217 222 226 225 222 222 222 223 224 224 225 225 225 225 224 225 226 227 228 230 232 233 233
191 185 194 204 196 183 189 205 197 196 226 246 248 252 252 243 235 223 211 210 212 219 225 229 228 226 226 228 228 228 229 229 229 229 230 229 230 230 230 231 233 235 236
189 186 194 202 186 173 189 199 198 205 216 232 260 272 265 255 246 233 227 217 218 221 224 224 226 231 231 230 230 230 230 231 231 232 233 233 233 233 233 234 235 236 238
185 176 189 191 185 185 200 198 190 209 242 204 347 320 315 291 262 261 248 231 228 224 219 217 218 221 227 229 230 232 232 233 235 234 234 234 234 235 235 237 239 239 239
189 182 177 184 188 189 195 193 178 176 240 178 156 101 335 334 317 280 266 246 251 231 220 219 213 212 216 215 222 228 232 235 237 235 236 235 236 235 237 237 237 238 239
192 184 178 178 184 185 200 206 186 173 204 237 185 161 169 242 302 318 291 271 264 247 240 209 204 210 212 212 217 225 228 231 235 234 234 235 237 238 237 236 237 237 235
192 190 183 181 185 185 194 209 193 184 176 215 245 218 197 181 190 298 319 305 290 259 239 208 182 192 198 204 214 219 224 227 229 230 231 230 231 229 226 227 231 231 231
203 197 192 189 195 196 201 205 199 195 187 193 208 222 229 217 193 194 271 303 319 286 243 214 189 186 195 194 198 208 213 217 222 222 222 219 219 218 218 224 228 229 231
213 211 201 199 202 202 206 209 207 205 202 199 205 198 193 201 208 197 229 259 271 282 272 234 204 192 195 190 195 198 197 200 204 208 209 209 214 216 217 222 226 232 238
209 215 210 205 208 209 208 207 207 216 210 204 210 215 213 219 200 188 199 237 256 274 288 279 231 186 196 191 186 192 190 190 193 195 196 199 203 202 197 195 206 223 231
208 208 206 206 206 204 211 208 210 216 213 211 221 217 220 230 210 197 193 191 246 284 275 256 264 204 177 181 191 185 177 182 187 190 191 191 193 191 188 185 187 195 205
209 207 207 207 208 206 207 202 214 219 215 218 226 223 225 235 224 215 199 182 182 230 258 247 236 218 171 175 189 181 177 183 187 190 191 191 189 185 183 184 182 181 187
209 200 204 205 206 207 205 204 215 217 212 225 224 222 231 238 235 222 208 201 187 192 233 242 230 222 189 183 195 185 189 193 195 194 195 190 185 184 184 183 180 182 186
202 199 200 198 200 204 204 202 211 207 210 225 230 219 232 237 236 230 220 210 199 184 224 259 240 219 190 189 178 192 194 194 200 203 202 196 193 192 191 189 191 195 196
205 203 199 196 202 204 202 203 212 210 209 220 227 225 237 242 238 227 216 218 213 200 198 239 246 224 224 203 191 195 198 208 207 212 207 202 203 202 199 198 199 201 203
204 207 198 198 201 201 202 209 210 210 208 213 217 223 235 230 237 234 223 223 222 217 196 212 236 231 237 206 187 212 211 214 216 214 209 209 209 207 205 203 203 205 208
204 207 203 203 202 201 202 206 207 212 214 217 218 221 225 221 226 226 228 226 218 208 203 212 232 233 228 215 174 199 225 228 226 212 211 212 215 216 212 209 209 211 212
210 204 200 202 202 200 202 199 207 214 215 221 227 227 229 226 226 224 227 220 211 208 204 210 228 228 226 200 209 204 216 223 236 214 206 221 215 216 214 217 217 217 216
208 200 203 203 202 206 208 206 205 215 218 219 230 239 241 234 234 232 232 219 207 205 210 211 222 227 233 226 208 201 197 199 236 213 187 226 201 221 226 219 219 217 217
202 204 207 200 205 212 212 214 210 208 217 222 225 230 243 245 236 227 232 227 225 220 210 204 216 226 224 219 201 207 208 209 226 207 180 225 214 228 233 228 222 219 217
204 215 223 216 211 218 215 219 215 210 221 232 230 224 227 242 239 220 211 224 239 238 224 214 218 225 225 215 204 206 212 216 242 210 174 205 216 226 233 227 226 220 217
211 220 226 223 219 225 218 214 197 200 220 239 240 230 222 226 240 210 196 219 248 266 256 233 230 232 229 221 204 183 186 187 230 232 196 185 203 212 229 239 230 218 214
219 224 231 222 218 220 215 205 195 199 216 232 245 241 227 226 220 196 199 208 231 252 261 268 259 261 246 234 217 202 197 201 205 223 206 183 188 167 226 244 220 209 211
Height
1551 1552 1553 1553 1554 1555 1555 1556 1556 1557 1558 1558 1558 1559 1559 1560 1560 1560 1561 1561 1561 1561 1561 1562 1562 1563 1563 1563 1564 1564 1565 1566 1566 1567 1567 1568 1569 1569 1570 1570 1571 1572 1572
1551 1551 1552 1553 1553 1554 1555 1555 1556 1556 1557 1557 1557 1558 1558 1559 1559 1559 1559 1560 1560 1560 1560 1560 1561 1561 1561 1562 1562 1563 1563 1564 1564 1565 1566 1566 1567 1567 1568 1568 1569 1570 1570
1551 1551 1552 1552 1553 1553 1554 1554 1555 1555 1556 1556 1557 1557 1557 1557 1558 1558 1558 1558 1558 1558 1559 1559 1559 1559 1560 1560 1560 1561 1561 1562 1562 1563 1563 1564 1565 1565 1566 1566 1567 1567 1568
1550 1551 1551 1551 1552 1552 1552 1553 1553 1554 1555 1555 1555 1556 1556 1556 1556 1556 1556 1556 1556 1556 1556 1557 1557 1557 1558 1558 1558 1559 1559 1560 1560 1560 1561 1562 1562 1563 1563 1564 1564 1565 1565
1548 1549 1550 1550 1551 1551 1551 1552 1552 1553 1553 1554 1554 1554 1554 1554 1554 1554 1554 1554 1554 1554 1554 1555 1555 1555 1556 1556 1556 1556 1557 1557 1557 1558 1558 1559 1560 1560 1560 1561 1561 1562 1562
1547 1547 1548 1549 1549 1549 1550 1550 1551 1552 1552 1553 1553 1553 1553 1553 1552 1552 1552 1552 1552 1553 1552 1553 1553 1553 1554 1554 1554 1554 1554 1555 1555 1555 1555 1556 1556 1557 1557 1558 1558 1559 1559
1546 1546 1547 1547 1548 1548 1548 1549 1550 1550 1551 1551 1551 1551 1551 1551 1550 1550 1550 1550 1550 1550 1551 1551 1551 1551 1551 1551 1552 1552 1552 1552 1552 1552 1552 1553 1553 1553 1554 1554 1555 1555 1556
1544 1545 1545 1546 1546 1546 1547 1547 1548 1548 1549 1550 1550 1550 1549 1550 1548 1548 1548 1548 1548 1549 1548 1549 1549 1549 1549 1549 1549 1549 1549 1549 1549 1549 1549 1549 1550 1550 1550 1551 1551 1551 1552
1542 1543 1543 1544 1544 1545 1545 1546 1546 1547 1547 1548 1548 1549 1548 1547 1547 1546 1546 1546 1546 1546 1546 1546 1546 1547 1547 1547 1547 1546 1546 1546 1546 1546 1546 1546 1546 1546 1547 1547 1547 1547 1548
1540 1541 1541 1542 1542 1543 1543 1544 1544 1545 1545 1546 1546 1547 1547 1547 1546 1545 1545 1544 1544 1544 1544 1544 1544 1544 1544 1544 1544 1544 1544 1544 1543 1543 1543 1543 1543 1543 1543 1543 1543 1543 1543
1538 1539 1539 1540 1540 1541 1541 1542 1542 1543 1543 1544 1544 1544 1545 1545 1545 1544 1543 1542 1542 1542 1542 1542 1542 1542 1541 1541 1541 1541 1541 1540 1540 1540 1540 1540 1540 1540 1539 1540 1540 1539 1539
1535 1536 1537 1537 1538 1538 1539 1539 1540 1540 1540 1541 1542 1542 1542 1542 1542 1542 1541 1540 1540 1540 1540 1540 1540 1539 1539 1539 1539 1538 1538 1538 1537 1537 1537 1537 1537 1537 1536 1536 1536 1536 1536
1532 1533 1534 1534 1535 1536 1536 1537 1537 1537 1538 1538 1539 1539 1539 1539 1540 1540 1539 1538 1538 1538 1537 1537 1537 1537 1537 1537 1536 1536 1536 1535 1535 1534 1534 1534 1534 1534 1533 1533 1533 1532 1532
1529 1530 1531 1531 1532 1533 1534 1534 1534 1535 1535 1535 1535 1536 1536 1536 1537 1537 1537 1536 1535 1535 1534 1534 1534 1535 1535 1534 1534 1534 1533 1533 1532 1532 1532 1532 1531 1531 1531 1530 1530 1530 1529
1526 1527 1528 1528 1529 1530 1531 1531 1531 1532 1532 1532 1532 1532 1532 1533 1534 1534 1534 1534 1534 1532 1531 1531 1532 1532 1532 1532 1532 1531 1531 1531 1530 1530 1530 1529 1529 1528 1528 1528 1527 1527 1527
1522 1523 1524 1525 1526 1526 1527 1528 1528 1528 1529 1529 1529 1529 1529 1529 1530 1530 1531 1531 1531 1530 1529 1528 1529 1529 1529 1529 1529 1529 1529 1529 1528 1528 1528 1527 1526 1526 1525 1525 1525 1525 1524
1519 1519 1520 1521 1521 1522 1523 1524 1524 1525 1525 1525 1525 1525 1525 1526 1526 1526 1527 1527 1527 1527 1526 1525 1526 1526 1526 1526 1526 1526 1526 1526 1526 1526 1525 1524 1524 1524 1523 1523 1522 1522 1522
1514 1515 1516 1517 1517 1518 1519 1520 1520 1520 1521 1521 1521 1522 1522 1522 1522 1522 1522 1523 1523 1523 1523 1522 1522 1523 1523 1523 1523 1523 1523 1523 1523 1523 1522 1522 1522 1521 1521 1521 1520 1520 1520
1510 1510 1511 1512 1513 1514 1515 1516 1516 1516 1517 1517 1517 1518 1518 1518 1518 1518 1518 1518 1518 1519 1519 1519 1519 1519 1519 1519 1519 1519 1519 1519 1520 1520 1520 1519 1519 1519 1519 1518 1518 1518 1517
1505 1505 1506 1507 1508 1509 1511 1512 1512 1512 1512 1513 1513 1514 1514 1514 1514 1514 1514 1514 1514 1514 1515 1515 1515 1515 1515 1515 1515 1515 1515 1515 1516 1516 1516 1516 1516 1516 1516 1516 1516 1515 1515
1500 1500 1501 1502 1503 1504 1506 1507 1507 1508 1508 1509 1509 1509 1510 1510 1510 1510 1510 1510 1510 1510 1510 1510 1510 1510 1511 1511 1511 1511 1511 1512 1512 1512 1513 1513 1513 1513 1513 1513 1513 1512 1512
1495 1496 1496 1497 1498 1499 1501 1502 1503 1504 1504 1504 1505 1505 1505 1506 1505 1506 1506 1506 1506 1506 1506 1506 1506 1506 1506 1507 1507 1508 1508 1508 1507 1508 1509 1509 1509 1509 1509 1509 1509 1509 1509
1491 1491 1492 1493 1494 1495 1497 1498 1499 1499 1500 1500 1500 1501 1501 1501 1501 1501 1501 1501 1502 1502 1502 1502 1502 1502 1502 1503 1503 1503 1503 1503 1503 1504 1505 1504 1505 1505 1506 1506 1506 1506 1506
1486 1488 1488 1489 1490 1491 1492 1493 1494 1495 1495 1496 1496 1496 1496 1496 1497 1497 1497 1497 1497 1497 1497 1497 1497 1497 1498 1498 1499 1499 1499 1500 1500 1500 1500 1500 1500 1501 1501 1502 1502 1502 1502
1482 1482 1484 1485 1485 1485 1487 1488 1489 1490 1491 1492 1492 1492 1492 1492 1492 1493 1493 1492 1492 1492 1493 1493 1493 1493 1493 1494 1494 1494 1494 1494 1494 1494 1495 1496 1495 1496 1496 1497 1498 1498 1499
1478 1479 1480 1480 1481 1481 1483 1483 1485 1485 1486 1487 1487 1487 1488 1488 1488 1488 1488 1488 1488 1488 1488 1487 1488 1488 1488 1488 1489 1489 1489 1489 1488 1489 1490 1491 1491 1491 1491 1492 1493 1494 1495